Regional Weather Roundup
Issued by NWS State College, PA

Home | Current Version | Previous Version | Graphics & Text | Print | Product List | Glossary Off
Versions: 1 2 3 4 5 6 7 8 9 10 11 12 13 14 15 16 17 18 19 20 21 22 23 24 25 26 27 28 29 30 31 32 33 34 35 36 37 38 39 40 41 42 43 44 45 46 47 48 49 50

000
ASUS41 KCTP 220710
RWRCTP

REGIONAL WEATHER ROUNDUP
NATIONAL WEATHER SERVICE STATE COLLEGE PA
300 AM EDT MON MAY 22 2017

Note: "fair" indicates few or no clouds below 12,000 feet with no
significant weather and/or obstructions to visibility.

* = STATION THAT DOES NOT REPORT PRECIPITATION /E.G. RAIN...SNOW...ETC/
    THUNDER OR FOG.

PAZ002>004-007>009-013>016-020>023-029>032-220800-
WESTERN PENNSYLVANIA

CITY           SKY/WX    TMP DP  RH WIND       PRES   REMARKS
ERIE           CLOUDY    62  59  90 SW6       29.94S
MEADVILLE      CLOUDY    65  65 100 S9        29.96F
FRANKLIN*      CLOUDY    61  57  88 S12       29.99F
NEW CASTLE     CLOUDY    65  64  97 VRB3      29.97F
BEAVER COUNTY  NOT AVBL
BUTLER*        CLOUDY    63  61  94 S3        30.00F
PITTSBURGH INT CLOUDY    64  63  96 S5        29.99F
PITTSBURGH     CLOUDY    62  58  86 S7        30.00F
INDIANA*       NOT AVBL
LATROBE        CLOUDY    64  57  77 S6        30.03F
WASHINGTON CO* CLOUDY    63  59  88 S3        30.02F
$$

PAZ004>006-010>012-017>019-024>028-033>037-041-042-045-046-049>053-220800-
CENTRAL PENNSYLVANIA

CITY           SKY/WX    TMP DP  RH WIND       PRES   REMARKS
BRADFORD       CLOUDY    52  52 100 SE8       30.03F
DUBOIS         CLOUDY    55  51  86 SE7       30.02F
CLEARFIELD     CLOUDY    53  52  96 N3        30.07F
JOHNSTOWN      CLOUDY    56  53  90 S7        30.07F
ALTOONA        CLOUDY    58  51  78 S7        30.09F
STATE COLLEGE  CLOUDY    55  52  89 CALM      30.09F
WILLIAMSPORT   CLOUDY    58  50  75 E7G18     30.10S
SELINSGROVE    CLOUDY    58  50  75 VRB6      30.13S
FT INDIANTOWN  CLOUDY    56  52  88 CALM      30.15F
CAPITAL CITY   CLOUDY    58  50  75 E6        30.14F
HARRISBURG     CLOUDY    58  53  84 SE7       30.14F
YORK           CLOUDY    56  53  90 CALM      30.14F
$$

PAZ038>040-043-044-047-048-054-055-060>062-067>071-220800-
EASTERN PENNSYLVANIA

CITY           SKY/WX    TMP DP  RH WIND       PRES   REMARKS
SCRANTON       CLOUDY    58  41  53 VRB5      30.13F
MOUNT POCONO   CLOUDY    49  42  77 SE9       30.15F
ALLENTOWN      CLOUDY    58  46  64 SE7       30.17F
QUAKERTOWN*    CLOUDY    54  50  87 SE3       30.18F
READING        CLOUDY    57  50  77 S8        30.15F
LANCASTER      CLOUDY    57  54  89 SE6       30.15F
COATESVILLE    CLOUDY    54  52  94 SE3       30.17F
POTTSTOWN      RAIN      54  51  90 VRB3      30.18F FOG
BLUE BELL      CLOUDY    54  50  87 SE3       30.19S
DOYLESTOWN     LGT RAIN  53  32  44 CALM      30.17F
WILLOW GROVE   NOT AVBL
NORTH PHILA    CLOUDY    58  49  72 E5        30.19F
PHILADELPHIA   LGT RAIN  57  51  80 E5        30.18F
$$




USA.gov is the U.S. government's official web portal to all federal, state and local government web resources and services.